Regional Weather Roundup
Issued by NWS Newport/Morehead, NC

Current Version | Previous Version | Graphics & Text | Print | Product List | Glossary Off
Versions: 1 2 3 4 5 6 7 8 9 10 11 12 13 14 15 16 17 18 19 20 21 22 23 24 25 26 27 28 29 30 31 32 33 34 35 36 37 38 39 40 41 42 43 44 45 46 47 48 49 50

000
ASUS42 KMHX 270825
RWRMHX
WEATHER ROUNDUP FOR EASTERN NORTH CAROLINA
NATIONAL WEATHER SERVICE NEWPORT/MOREHEAD CITY NC
400 AM EDT THU JUL 27 2017

NOTE: "FAIR" INDICATES FEW OR NO CLOUDS BELOW 12,000 FEET
WITH NO SIGNIFICANT WEATHER AND/OR OBSTRUCTIONS TO VISIBILITY

NCZ015>017-031-032-045>047-102-103-270900-
NORTH COAST

CITY           SKY/WX    TMP DP  RH WIND       PRES   REMARKS
EDENTON        MOCLDY    75  69  79 CALM      30.08F
ELIZABETH CITY CLEAR     70  69  97 S3        30.07F
KITTY HAWK     SUNNY     71  67  87 CALM      30.07S
MANTEO         CLEAR     69  66  91 CALM      30.08S

$$

NCZ045>047-081-094-103-104-270900-
CENTRAL COAST

CITY           SKY/WX    TMP DP  RH WIND       PRES   REMARKS
FRISCO         CLEAR     72  67  84 NE3       30.08F

$$

NCZ095-097-098-100-101-270900-
SOUTHERN COAST

CITY           SKY/WX    TMP DP  RH WIND       PRES   REMARKS
BEAUFORT       CLEAR     72  71  97 NE5       30.08S
CEDAR ISLAND   NOT AVBL
JACKSONVILLE   PTCLDY    74  72  93 E6        30.06F
PINEY ISLAND   SUNNY    N/A N/A N/A E6        30.07F
WILMINGTON     CLEAR     71  70  96 NE3       30.07S


$$

NCZ011>013-027>030-043-044-078>080-089-090>093-098-270900-
COASTAL PLAIN

CITY           SKY/WX    TMP DP  RH WIND       PRES   REMARKS
AHOSKIE          N/A     67  67  98 CALM      30.08F
CLINTON        PTCLDY    70  70 100 CALM      30.08S
ELIZABETHTOWN  NOT AVBL
GOLDSBORO      PTCLDY    71  71 100 E3        30.06F
GREENVILLE     PTCLDY    70  68  94 CALM      30.09S
HAVELOCK       CLEAR     70  67  90 SE6       30.08F
KENANSVILLE    CLEAR     66  66 100 CALM      30.08S FOG
KINSTON        PTCLDY    72  67  84 SE5       30.08F
NEW BERN       PTCLDY    68  68 100 S3        30.08F
RICHLANDS      PTCLDY    68  67  96 CALM      30.08F
ROCKY MOUNT    CLEAR     68  68 100 CALM      30.07F
WASHINGTON     MOCLDY    69  67  93 NE3       30.08S
WHITEVILLE     PTCLDY    70  68  94 CALM      30.06F

$$

AMZ130-135-150-152-154-156-158-170-250-252-270-ANZ085-086-088-633-658-670-270900-
MARINE OBSERVATIONS

STATION/POSITION TIME  TEMP    WIND        PRES    WAVE   SWELL
                       AIR SEA DIR/SP/G            HT/PER HT/PER
                 (UTC) (F)     (DEG/KT/KT) (MB)    (FT/S) (FT/S)
CHESAPEAKE LIGHT NOT AVBL
64 E VA BEACH    0750   74 77  160/  4/  6 1019.1    3/ 8   3/ 8
DUCK             0800   74 74  130/  5/  5 1018.0
2 E DUCK         0800      74                N/A     3/ 6
OREGON INLET     0800   73 76  100/  3/  3 1018.2
13E OREGON INLT  0748      78                N/A     3/ 8   3/ 8
HATTERAS CG      0800   76 79   50/  3/  3 1018.5
DIAMOND BUOY     0750   80 83   80/  4/  8 1018.3    3/ 7   3/ 7
CAPE LOOKOUT     0800   79      80/  6/  7 1018.1
BEAUFORT LAB     0800   73 79   40/  3/  6 1017.9
30 SE NEW RVR IN 0808   80 84  100/  8/ 12 1018.2
30 SE NEW RVR IN 0813      83                N/A     3/ 7
27 SE WRIGHTSVLE 0808   81 83  110/ 10/ 14 1017.8
5 SE WRIGHTSVLE  0808   81 81  100/  8/ 12 1017.9
225 S CAPE HAT   0750   81 83  230/  4/  6 1016.9    2/ 9   2/ 9
41 SE CHARLESTON 0810   80 82  200/  4/  6 1017.0

$$




USA.gov is the U.S. government's official web portal to all federal, state and local government web resources and services.